SCP
0 0 0 0 0 0 0 0 0 0 0 0 0 0 0 0 0 0 0 0 0 0 0 0 0 0 0 0 0 0 0 0
0 0 0 0 0 0 0 0 0 0 0 0 0 0 0 0 0 0 0 0 0 0 0 0 0 0 -0 0 0 0 0 0
0 0 0 0 0 0 0 0 0 0 0 0 0 0 0 0 0 0 0 0 0 0 0 0 0 0 0 0 0 0 0 0
0 0 0 0 0 0 0 0 0 0 0 0 0 0 0 0 0 0 0 0 0 0 0 0 0 0 0 0 0 0 0 0
0 0 0 0 0 0 0 0 0 0 0 0 0 0 0 0 0 0 0 -0 0 0 0 0 0 0 0 0 0 0 0 0
0 0 0 0 0 0 0 0 0 0 0 -0 0 0 0 0 0 0 0 0 -0 -0 -0 0 0 0 0 0 0 0 0 0
0 0 0 0 0 0 0 0 0 0 0 0 0 0 -0 0 0 -0 0 -0 -0 -0 0 0 0 0 0 0 -0 0 0 0
0 0 0 0 0 0 0 0 0 0 0 0 0 0 0 0 0 -0 -0 -0 -0 -0 -0 0 0 0 0 0 -0 -0 -0 -0
0 0 -0 0 0 0 0 0 0 0 0 0 0 0 0 -0 0 0 0 -0 -0 -0 0 0 0 -0 -0 -0 -0 -0 -0 -0
-0 -0 0 -0 0 0 0 0 0 0 0 0 0 0 0 0 0 0 0 0 0 0 0 0 0 0 -0 -0 -0 -0 0 -0
-0 0 0 0 0 0 0 0 0 0 0 0 0 0 -0 -0 -0 -0 0 0 0 0 0 0 0 0 0 -0 -0 -0 -0 -0
0 -0 0 0 0 0 0 -0 0 0 0 0 0 0 0 0 -0 -0 -0 0 0 0 0 0 -0 -0 0 0 0 -0 -0 -0
0 0 0 0 0 0 0 0 0 0 0 0 0 0 0 0 0 -0 -0 -0 0 0 0 0 0 0 0 0 0 0 0 0
-0 -0 -0 -0 -0 -0 0 0 0 0 0 0 0 0 0 0 0 0 -0 -0 0 0 -0 0 0 0 0 0 0 0 0 0
0 -0 -0 -0 -0 -0 -0 -0 0 0 0 0 0 0 0 0 0 0 0 -0 -0 0 0 0 0 0 0 0 0 0 0 0
0 0 0 -0 0 -0 -0 -0 -0 -0 0 0 0 -0 0 0 0 0 0 0 0 0 0 0 0 0 0 0 0 0 0 0
0 0 0 0 0 0 -0 -0 -0 -0 -0 0 -0 -0 0 0 0 0 0 0 0 0 0 0 0 0 0 0 0 0 0 0
0 0 0 0 0 0 0 -0 -0 -0 -0 -0 -0 -0 0 0 0 0 0 0 0 0 0 -0 0 0 0 0 0 0 0 -0
0 0 0 0 0 0 0 0 0 0 0 0 0 -0 -0 0 0 0 0 0 0 0 -0 -0 0 0 0 0 0 0 0 0
0 0 0 0 0 0 0 0 0 0 0 0 0 -0 -0 -0 0 0 0 0 0 0 0 0 0 0 0 0 0 0 0 0
Wind_Speed_500mb
8 9 7 5 8 6 20 8 7 13 19 16 21 19 25 27 27 27 30 29 29 29 6 6 9 13 15 20 23 26 24 19
7 1 11 12 12 4 13 8 6 13 14 18 22 16 13 17 24 27 22 21 25 26 21 16 8 16 11 13 17 20 24 35
17 14 7 1 4 7 10 10 4 13 18 10 15 19 17 13 16 23 18 15 15 17 17 14 16 10 12 15 19 21 18 20
20 17 9 3 3 6 16 13 15 12 15 13 18 18 16 20 26 15 21 21 10 9 9 20 14 13 9 8 11 18 19 13
17 19 18 18 23 26 25 19 15 19 18 10 12 9 16 13 18 16 21 22 7 6 3 8 15 10 10 12 12 14 15 14
21 22 23 25 26 26 29 22 20 19 17 13 15 17 19 11 13 19 15 18 10 5 1 3 9 11 4 7 5 7 6 5
30 30 25 28 31 29 28 24 21 24 21 17 13 15 10 12 19 23 18 15 9 7 7 8 14 16 12 8 7 1 5 4
36 34 31 34 32 27 28 27 26 24 27 17 21 16 20 17 16 20 22 16 10 10 16 14 17 20 19 13 14 13 7 6
50 44 43 43 41 36 32 27 26 25 26 27 21 26 26 21 20 22 20 21 16 12 18 18 24 20 11 8 13 23 19 14
56 55 41 37 42 41 48 39 17 25 32 30 29 26 27 26 23 23 21 22 24 19 25 30 30 16 23 16 10 13 22 21
62 59 54 44 38 38 39 53 36 26 30 36 29 32 35 32 26 28 27 23 28 26 25 34 28 20 21 18 17 12 12 20
60 65 64 62 45 36 37 33 38 39 26 31 34 35 38 34 36 29 28 24 24 27 18 23 4 8 13 15 19 17 13 17
60 58 68 64 55 39 36 34 36 39 34 28 33 38 38 33 37 34 33 27 27 27 26 21 20 23 23 21 27 29 31 34
54 57 57 62 60 48 27 23 19 28 35 37 33 33 36 34 36 31 36 33 26 26 31 30 30 32 31 29 29 32 34 33
51 51 52 54 51 53 44 42 37 36 27 27 35 33 34 38 39 37 34 33 35 27 31 33 36 37 36 36 37 34 32 29
52 57 56 54 41 41 51 51 36 22 30 42 37 38 40 36 37 38 40 38 41 34 27 28 32 37 39 35 40 41 38 33
53 53 50 51 39 37 45 52 45 35 35 33 44 40 37 40 36 38 44 39 47 44 38 38 31 34 34 38 36 32 31 33
44 53 48 45 37 33 39 43 42 35 37 36 38 37 45 34 32 41 41 43 43 38 36 35 32 25 33 43 33 32 29 13
47 45 34 34 35 32 35 42 40 38 37 38 44 41 40 34 46 35 31 30 28 37 48 49 28 35 31 31 39 37 38 31
38 39 48 53 50 48 37 39 33 38 44 37 42 30 39 38 40 35 33 48 29 30 38 40 32 33 35 40 26 27 31 29
Wind_Direction_500mb
305 320 223 224 259 296 349 11 22 2 336 354 3 21 39 25 12 10 32 26 28 19 305 64 72 13 26 59 59 70 57 57
54 19 216 223 210 281 8 11 17 325 351 14 8 17 15 9 3 360 7 18 27 33 60 42 21 351 108 82 67 63 61 61
36 37 14 280 254 357 18 350 279 316 328 331 348 348 349 334 350 351 357 353 14 39 33 21 1 83 118 99 84 85 76 68
26 9 343 274 259 301 331 329 291 316 314 321 334 316 314 333 347 320 339 345 336 30 34 21 44 79 113 128 78 98 96 81
341 353 335 305 299 311 320 317 271 279 295 291 325 310 324 329 340 337 333 346 343 124 53 355 16 46 81 103 114 97 91 78
311 313 308 313 309 310 318 292 270 266 294 278 293 297 320 295 318 326 308 322 350 209 111 349 336 358 29 122 110 132 122 112
306 312 321 294 298 304 305 307 274 261 269 273 283 287 335 338 317 336 339 312 286 303 263 294 291 312 300 253 187 205 355 256
337 329 314 302 286 289 299 295 292 261 264 255 261 274 283 289 311 313 343 330 292 271 280 263 262 291 306 255 233 264 298 305
342 317 305 288 278 288 280 289 281 281 267 274 262 258 277 287 272 315 309 334 315 296 280 277 267 263 267 285 278 258 264 307
351 344 342 310 294 287 275 280 308 277 268 271 256 250 264 279 272 280 296 305 314 317 309 300 277 252 249 264 286 303 259 257
353 355 350 337 324 279 280 269 285 290 268 266 266 257 256 269 269 269 280 288 293 297 308 325 288 249 255 251 252 305 268 254
0 360 356 350 335 307 274 260 275 272 293 275 268 265 264 258 259 254 265 273 284 311 309 326 310 294 286 268 237 261 247 291
354 355 354 354 350 332 303 284 272 257 278 287 274 271 270 265 257 252 257 266 287 284 280 287 297 281 277 272 242 255 267 287
347 353 353 357 359 360 344 333 273 274 278 283 285 279 285 269 262 259 249 260 274 287 270 277 278 282 284 275 271 276 284 281
351 351 351 355 356 1 2 348 349 328 288 307 281 273 285 289 270 260 253 260 265 258 262 281 271 271 272 273 274 273 281 283
348 347 346 351 344 359 7 3 355 341 303 323 308 299 283 278 286 268 276 268 270 270 261 286 277 276 267 265 270 270 272 278
338 344 342 344 340 347 354 348 350 357 345 330 335 283 296 274 277 277 274 266 265 268 284 282 281 280 248 246 262 258 264 275
343 346 344 343 339 344 354 341 342 344 359 353 352 340 297 312 296 276 273 270 252 263 260 272 296 269 261 248 258 262 263 251
340 340 344 349 350 337 340 332 340 339 342 348 342 344 339 319 314 307 274 270 271 267 273 267 279 263 260 249 254 269 274 256
337 340 340 339 336 333 332 333 328 328 336 336 347 334 337 332 321 308 290 291 286 270 275 263 283 245 269 256 257 275 283 273
Wind_Speed_850mb
8 9 7 5 8 6 20 8 7 13 19 16 21 19 25 27 27 27 30 29 29 29 6 6 9 13 15 20 23 26 24 19
7 1 11 12 12 4 13 8 6 13 14 18 22 16 13 17 24 27 22 21 25 26 21 16 8 16 11 13 17 20 24 35
17 14 7 1 4 7 10 10 4 13 18 10 15 19 17 13 16 23 18 15 15 17 17 14 16 10 12 15 19 21 18 20
20 17 9 3 3 6 16 13 15 12 15 13 18 18 16 20 26 15 21 21 10 9 9 20 14 13 9 8 11 18 19 13
17 19 18 18 23 26 25 19 15 19 18 10 12 9 16 13 18 16 21 22 7 6 3 8 15 10 10 12 12 14 15 14
21 22 23 25 26 26 29 22 20 19 17 13 15 17 19 11 13 19 15 18 10 5 1 3 9 11 4 7 5 7 6 5
30 30 25 28 31 29 28 24 21 24 21 17 13 15 10 12 19 23 18 15 9 7 7 8 14 16 12 8 7 1 5 4
36 34 31 34 32 27 28 27 26 24 27 17 21 16 20 17 16 20 22 16 10 10 16 14 17 20 19 13 14 13 7 6
50 44 43 43 41 36 32 27 26 25 26 27 21 26 26 21 20 22 20 21 16 12 18 18 24 20 11 8 13 23 19 14
56 55 41 37 42 41 48 39 17 25 32 30 29 26 27 26 23 23 21 22 24 19 25 30 30 16 23 16 10 13 22 21
62 59 54 44 38 38 39 53 36 26 30 36 29 32 35 32 26 28 27 23 28 26 25 34 28 20 21 18 17 12 12 20
60 65 64 62 45 36 37 33 38 39 26 31 34 35 38 34 36 29 28 24 24 27 18 23 4 8 13 15 19 17 13 17
60 58 68 64 55 39 36 34 36 39 34 28 33 38 38 33 37 34 33 27 27 27 26 21 20 23 23 21 27 29 31 34
54 57 57 62 60 48 27 23 19 28 35 37 33 33 36 34 36 31 36 33 26 26 31 30 30 32 31 29 29 32 34 33
51 51 52 54 51 53 44 42 37 36 27 27 35 33 34 38 39 37 34 33 35 27 31 33 36 37 36 36 37 34 32 29
52 57 56 54 41 41 51 51 36 22 30 42 37 38 40 36 37 38 40 38 41 34 27 28 32 37 39 35 40 41 38 33
53 53 50 51 39 37 45 52 45 35 35 33 44 40 37 40 36 38 44 39 47 44 38 38 31 34 34 38 36 32 31 33
44 53 48 45 37 33 39 43 42 35 37 36 38 37 45 34 32 41 41 43 43 38 36 35 32 25 33 43 33 32 29 13
47 45 34 34 35 32 35 42 40 38 37 38 44 41 40 34 46 35 31 30 28 37 48 49 28 35 31 31 39 37 38 31
38 39 48 53 50 48 37 39 33 38 44 37 42 30 39 38 40 35 33 48 29 30 38 40 32 33 35 40 26 27 31 29
Wind_Direction_850mb
305 320 223 224 259 296 349 11 22 2 336 354 3 21 39 25 12 10 32 26 28 19 305 64 72 13 26 59 59 70 57 57
54 19 216 223 210 281 8 11 17 325 351 14 8 17 15 9 3 360 7 18 27 33 60 42 21 351 108 82 67 63 61 61
36 37 14 280 254 357 18 350 279 316 328 331 348 348 349 334 350 351 357 353 14 39 33 21 1 83 118 99 84 85 76 68
26 9 343 274 259 301 331 329 291 316 314 321 334 316 314 333 347 320 339 345 336 30 34 21 44 79 113 128 78 98 96 81
341 353 335 305 299 311 320 317 271 279 295 291 325 310 324 329 340 337 333 346 343 124 53 355 16 46 81 103 114 97 91 78
311 313 308 313 309 310 318 292 270 266 294 278 293 297 320 295 318 326 308 322 350 209 111 349 336 358 29 122 110 132 122 112
306 312 321 294 298 304 305 307 274 261 269 273 283 287 335 338 317 336 339 312 286 303 263 294 291 312 300 253 187 205 355 256
337 329 314 302 286 289 299 295 292 261 264 255 261 274 283 289 311 313 343 330 292 271 280 263 262 291 306 255 233 264 298 305
342 317 305 288 278 288 280 289 281 281 267 274 262 258 277 287 272 315 309 334 315 296 280 277 267 263 267 285 278 258 264 307
351 344 342 310 294 287 275 280 308 277 268 271 256 250 264 279 272 280 296 305 314 317 309 300 277 252 249 264 286 303 259 257
353 355 350 337 324 279 280 269 285 290 268 266 266 257 256 269 269 269 280 288 293 297 308 325 288 249 255 251 252 305 268 254
0 360 356 350 335 307 274 260 275 272 293 275 268 265 264 258 259 254 265 273 284 311 309 326 310 294 286 268 237 261 247 291
354 355 354 354 350 332 303 284 272 257 278 287 274 271 270 265 257 252 257 266 287 284 280 287 297 281 277 272 242 255 267 287
347 353 353 357 359 360 344 333 273 274 278 283 285 279 285 269 262 259 249 260 274 287 270 277 278 282 284 275 271 276 284 281
351 351 351 355 356 1 2 348 349 328 288 307 281 273 285 289 270 260 253 260 265 258 262 281 271 271 272 273 274 273 281 283
348 347 346 351 344 359 7 3 355 341 303 323 308 299 283 278 286 268 276 268 270 270 261 286 277 276 267 265 270 270 272 278
338 344 342 344 340 347 354 348 350 357 345 330 335 283 296 274 277 277 274 266 265 268 284 282 281 280 248 246 262 258 264 275
343 346 344 343 339 344 354 341 342 344 359 353 352 340 297 312 296 276 273 270 252 263 260 272 296 269 261 248 258 262 263 251
340 340 344 349 350 337 340 332 340 339 342 348 342 344 339 319 314 307 274 270 271 267 273 267 279 263 260 249 254 269 274 256
337 340 340 339 336 333 332 333 328 328 336 336 347 334 337 332 321 308 290 291 286 270 275 263 283 245 269 256 257 275 283 273